Dewpoint
67 68 69 70 71 72 71 71 71 71 71 71 71 72 72 72 73 73 74 73 73 73 73 72 72 72 70 70 69 69 69 68 67 69 71 72 73 74 74 74 74 75 74
67 68 68 69 70 71 72 72 71 71 71 71 71 72 73 73 72 72 72 73 74 73 74 74 73 72 73 73 72 72 71 71 70 70 73 73 73 75 74 74 74 73 73
67 68 67 68 70 70 71 73 73 73 72 72 72 72 72 73 73 73 73 73 74 74 74 74 73 73 73 73 73 73 73 73 73 72 71 73 73 73 74 74 74 73 71
67 68 67 67 69 69 71 72 72 73 73 73 74 74 74 74 73 73 73 74 74 74 74 74 74 73 73 73 73 74 74 73 73 72 72 71 72 73 72 71 70 72 71
68 68 68 68 69 69 71 72 73 72 73 73 73 74 74 74 72 74 74 73 74 74 74 74 74 73 71 71 73 73 74 73 73 72 72 72 71 71 71 71 70 71 71
68 68 69 69 69 69 71 71 72 72 73 73 72 73 73 72 68 66 71 74 74 74 73 74 74 72 71 68 67 68 71 73 72 71 71 70 71 71 71 71 71 70 68
67 68 69 69 69 69 70 71 71 71 72 72 73 73 73 73 66 64 66 74 73 74 74 73 73 74 71 73 70 66 66 65 68 72 71 70 70 71 72 71 71 70 70
68 69 70 70 69 70 71 71 71 71 71 71 71 73 73 73 64 62 63 70 71 72 72 71 71 72 72 71 73 72 72 73 72 69 71 72 72 73 73 73 72 72 70
70 70 71 71 70 71 71 71 71 70 70 70 70 70 71 70 60 60 64 70 70 70 71 71 71 71 67 64 70 71 71 71 68 64 63 64 63 62 64 70 69 68 69
67 69 70 70 70 70 69 69 70 70 69 67 65 66 64 69 61 58 64 70 69 69 69 70 65 66 60 57 65 67 67 68 68 69 70 69 67 69 64 69 71 69 68
63 67 68 69 68 68 68 69 69 67 67 65 66 66 66 66 67 58 57 67 67 67 67 67 68 60 56 55 55 65 65 66 65 66 66 68 69 69 71 71 69 70 68
63 65 67 68 68 69 68 68 68 66 65 64 65 66 66 66 60 58 55 56 61 65 66 68 66 58 53 53 55 57 55 56 62 64 66 67 68 69 70 70 70 69 70
63 65 67 67 65 67 67 67 67 67 65 65 65 65 65 65 65 56 54 55 56 63 66 63 57 54 53 57 54 54 57 66 67 66 66 67 67 69 70 69 68 67 66
62 63 65 67 67 68 68 67 68 65 65 65 64 64 63 64 65 66 63 62 58 60 60 61 60 58 56 58 63 62 62 62 63 62 63 65 66 66 67 68 68 66 66
58 61 64 64 63 62 60 59 64 61 61 65 65 65 64 64 65 60 59 61 60 55 55 61 63 63 61 60 60 60 60 59 59 59 60 61 62 63 63 65 66 67 65
56 57 60 62 62 61 61 60 51 49 46 45 48 59 59 51 50 47 46 45 45 45 56 63 61 60 59 58 57 57 57 57 57 58 59 59 59 59 60 62 64 64 64
48 53 50 54 53 52 52 54 59 58 50 46 44 45 47 48 44 44 44 45 45 48 60 60 59 59 58 57 57 56 56 55 55 55 56 56 57 57 58 59 60 62 62
46 47 47 50 53 51 50 50 50 52 53 55 51 48 43 43 43 43 44 46 57 56 59 58 57 57 56 56 55 55 55 54 50 49 50 50 54 55 56 57 58 58 59
46 45 45 45 45 45 46 46 48 48 51 53 57 52 48 41 41 41 43 58 59 59 59 57 57 56 55 55 55 55 55 52 44 43 43 43 48 53 54 56 56 52 54
43 47 46 44 43 44 44 44 44 46 46 46 47 51 56 52 54 54 52 56 57 58 59 58 57 56 55 55 55 54 52 46 42 38 40 42 44 50 52 53 53 53 55
41 42 45 43 43 43 43 44 44 45 45 45 45 46 44 51 54 56 55 54 55 56 57 58 57 55 55 54 53 52 50 44 41 41 42 42 42 46 51 52 51 49 49
40 41 41 41 42 42 43 43 44 44 44 45 44 44 42 49 51 54 55 54 53 55 57 57 56 55 54 53 52 49 48 43 39 39 40 41 40 43 48 48 48 47 47
40 40 40 41 41 43 42 43 43 44 44 44 44 43 44 44 47 49 52 53 53 53 55 57 56 55 54 54 52 48 43 41 39 40 40 36 37 39 42 44 45 46 45
39 40 40 40 40 41 42 42 43 42 44 44 44 44 44 44 44 44 44 45 47 49 52 55 56 55 54 53 53 50 46 43 37 35 37 35 32 33 38 39 38 41 41
38 39 39 40 40 40 41 41 42 42 43 43 43 43 43 44 44 44 44 45 45 46 47 52 55 56 55 54 53 52 48 35 39 33 35 35 33 35 38 40 39 38 38
40 39 39 39 40 40 40 41 41 42 42 42 43 43 43 43 43 43 44 44 44 44 45 46 49 53 54 54 53 48 40 37 38 31 34 33 33 33 39 42 39 40 39
Lifted_Index
-1 -1 -1 -2 -3 -3 -3 -4 -4 -3 -3 -3 -3 -3 -3 -3 -3 -3 -3 -3 -3 -3 -3 -4 -4 -4 -3 -4 -4 -4 -3 -3 -3 -4 -5 -5 -5 -5 -5 -6 -6 -6 -5
-1 -1 -1 -2 -3 -3 -4 -4 -4 -4 -4 -4 -4 -3 -3 -3 -3 -3 -3 -3 -3 -3 -4 -4 -4 -4 -4 -4 -3 -3 -3 -3 -3 -4 -4 -5 -5 -5 -5 -5 -6 -5 -5
-1 -1 -1 -2 -3 -3 -4 -4 -5 -5 -4 -4 -4 -4 -4 -4 -4 -4 -3 -3 -4 -4 -4 -4 -4 -4 -4 -4 -4 -4 -4 -4 -4 -4 -4 -5 -5 -5 -5 -5 -5 -5 -5
-2 -2 -2 -2 -3 -3 -4 -5 -5 -5 -5 -5 -5 -5 -5 -5 -4 -4 -4 -4 -4 -4 -4 -4 -4 -4 -4 -4 -4 -4 -4 -4 -4 -4 -4 -4 -5 -5 -5 -4 -4 -4 -4
-2 -2 -2 -2 -3 -3 -4 -5 -5 -5 -5 -5 -5 -5 -5 -5 -5 -5 -5 -5 -5 -5 -5 -5 -5 -5 -5 -5 -4 -4 -4 -4 -4 -4 -4 -4 -4 -4 -4 -4 -4 -4 -3
-2 -3 -3 -3 -3 -3 -4 -5 -5 -5 -5 -5 -5 -5 -5 -5 -5 -5 -5 -5 -5 -5 -5 -5 -5 -5 -5 -5 -4 -4 -4 -4 -4 -3 -3 -3 -4 -4 -4 -4 -3 -3 -3
-2 -3 -3 -3 -3 -3 -4 -4 -5 -5 -5 -5 -5 -5 -5 -5 -4 -4 -4 -5 -5 -5 -5 -5 -5 -4 -4 -4 -4 -4 -4 -4 -3 -3 -3 -3 -3 -4 -4 -4 -3 -3 -3
-3 -3 -3 -3 -3 -3 -4 -4 -4 -4 -4 -4 -4 -4 -4 -4 -4 -4 -4 -4 -5 -5 -4 -4 -4 -3 -3 -3 -3 -3 -3 -3 -3 -2 -2 -2 -3 -3 -4 -4 -4 -3 -3
-3 -3 -3 -3 -3 -3 -4 -4 -3 -3 -3 -3 -3 -3 -3 -4 -4 -4 -5 -5 -5 -4 -4 -3 -3 -2 -2 -2 -2 -2 -2 -2 -2 -1 -1 -2 -2 -3 -3 -4 -4 -4 -3
-3 -3 -3 -3 -3 -3 -3 -3 -2 -2 -2 -2 -2 -2 -3 -3 -3 -3 -4 -4 -4 -4 -3 -2 -2 -1 -1 -1 -1 -1 -1 -0 -0 0 -0 -0 -1 -2 -3 -4 -4 -4 -4
-2 -2 -2 -2 -2 -2 -2 -2 -1 -1 -1 -1 -1 -1 -1 -1 -1 -1 -2 -3 -3 -2 -1 -1 -1 -0 -0 -0 0 1 1 2 2 2 1 1 0 -1 -3 -4 -4 -5 -5
1 0 -0 -0 -0 -0 -1 -1 -0 -0 -0 -0 -0 -0 0 1 1 1 -0 -1 -1 -1 -0 0 -0 -0 -0 0 1 2 2 2 2 2 2 2 1 -1 -2 -3 -4 -5 -5
2 1 1 0 1 0 -1 -1 -0 -0 0 -0 -1 -0 0 1 2 1 1 0 -0 0 0 0 -0 -1 -1 -0 0 1 1 1 1 1 2 2 1 -0 -2 -3 -4 -4 -4
0 0 -0 -0 -0 -1 -1 -1 -1 -1 -1 -1 -1 -1 -0 1 2 2 1 1 1 1 1 1 0 -1 -1 -1 -0 -0 -0 0 0 1 1 1 1 0 -1 -2 -3 -3 -3
-1 -1 -1 -1 -2 -2 -2 -2 -1 -2 -2 -2 -2 -2 -1 0 1 1 1 1 1 1 1 1 0 -0 -0 0 0 0 1 1 1 2 2 2 1 1 0 -0 -1 -1 -1
-2 -2 -2 -2 -2 -2 -2 -1 -1 -1 -1 -1 -1 -1 -1 -1 -0 -0 0 1 1 1 1 1 2 2 2 3 3 3 3 3 3 4 4 3 3 2 1 1 1 1 0
-1 -1 -1 -1 -1 -1 -1 -0 -0 1 1 1 1 1 0 0 1 1 1 2 2 3 2 3 4 5 5 6 6 5 5 5 5 6 6 5 5 4 3 2 1 1 1
2 2 1 1 1 1 1 1 1 2 3 3 3 2 2 2 2 2 2 3 3 3 3 4 5 6 7 7 8 7 7 7 7 7 7 7 6 5 4 3 2 2 1
4 4 4 4 3 3 3 3 3 4 3 3 2 2 2 1 1 2 2 2 3 3 3 4 5 6 7 8 8 9 9 9 9 9 9 9 8 8 7 6 4 3 3
6 6 5 5 5 5 5 5 5 5 4 3 3 2 2 1 1 1 2 2 3 3 3 3 5 6 7 8 9 9 10 10 11 11 11 11 11 11 10 9 8 7 6
10 9 8 7 7 7 6 6 6 6 5 4 4 3 3 3 3 2 2 2 2 2 2 2 3 5 6 7 9 10 10 11 11 12 12 12 12 12 12 12 11 10 9
12 12 11 11 10 10 9 9 8 8 7 6 6 5 4 4 4 3 3 2 2 2 2 1 2 3 5 6 8 9 9 10 10 11 11 12 12 13 13 13 12 12 11
11 12 12 12 11 11 11 11 10 9 9 8 7 6 6 5 5 4 4 3 2 2 2 2 1 2 4 5 6 7 8 8 9 9 10 11 11 12 12 12 12 12 12
10 10 11 11 11 11 11 10 10 10 9 9 8 7 6 6 5 5 4 4 3 3 3 3 2 1 2 4 5 6 7 7 7 8 9 9 10 10 11 11 12 12 12
9 9 9 9 10 10 10 10 10 10 9 8 8 7 7 6 6 5 5 5 5 4 4 4 3 2 2 3 3 4 5 6 7 7 8 8 8 9 10 10 11 11 12
9 9 9 9 9 9 9 9 9 9 9 8 8 7 7 6 6 6 6 6 6 5 5 5 4 3 3 3 3 3 4 5 6 7 7 8 8 8 9 10 10 11 11